Location: Killam
(52.7910°N, 111.8608°W)
Time: 09:52:27
(UTC+00:00)

FENGYUN 1C DEB - Pass Details

Date: 29 May 2024
Orbit: 795 x 992 km, 98.4° (Epoch: 16 June)

Event Time Altitude Azimuth Distance (km) Brightness Sun altitude
Rises 07:35:51 0° 8° (N) 3,319 ? -15.5°
Reaches altitude 10° 07:38:35 10° 354° (N) 2,396 ? -15.4°
Maximum altitude 07:42:37 23° 304° (NW) 1,684 ? -15.4°
Drops below altitude 10° 07:46:44 10° 254° (WSW) 2,447 ? -15.3°
Enters shadow 07:48:51 - 243° (WSW) 3,153 ? -15.3°
